Wind_Speed
27 27 28 29 26 24 23 21 20 18 16 16 17 17 16 14 14 14 15 15 15 14 13 12 12 12 11 9 8 11 14 15 15 14 14 13 12 11 11 10 9 11 12 12 14 15 13 13 15 16 16 15 14 13 12 12 10 8 7 6 6 6 5 5 7 9 8 7 8 10 10 10 10 10 9 8 7 7 8 8 8 7 8 8 9
28 28 28 28 27 25 23 22 20 18 17 17 17 16 16 15 14 14 15 15 15 14 13 13 13 12 11 9 9 11 14 15 15 14 13 12 12 11 10 9 10 11 11 11 12 15 15 15 16 17 15 14 12 10 9 9 8 6 5 4 4 4 4 4 6 9 9 8 9 11 10 9 11 12 12 10 9 8 9 10 9 8 9 8 9
29 29 28 27 26 24 23 22 21 19 18 17 16 16 16 15 14 13 14 15 15 14 13 13 14 13 12 10 10 12 14 15 15 13 12 11 11 10 10 10 11 11 11 10 10 12 14 15 14 13 12 12 11 8 8 7 6 5 4 3 3 3 4 5 5 7 9 9 10 11 10 10 12 13 13 12 11 9 11 11 10 9 10 9 9
30 29 27 27 25 23 22 22 21 20 19 17 16 16 16 16 14 13 12 14 14 14 13 13 14 13 13 11 11 12 14 15 15 13 13 11 10 10 11 12 12 10 10 10 10 10 12 13 12 10 10 10 9 7 6 6 4 4 3 3 3 3 4 5 6 7 9 10 11 11 11 11 11 12 13 13 12 12 12 12 11 11 11 9 11
27 27 26 25 23 22 22 21 21 21 19 17 16 16 16 16 15 12 12 13 14 14 13 13 13 13 13 11 11 12 13 15 15 14 14 13 12 11 12 13 13 12 11 11 10 10 10 10 10 9 8 7 6 6 5 4 4 3 3 3 3 3 3 4 6 8 9 10 10 10 11 11 10 12 13 13 13 13 13 13 13 13 12 11 13
25 25 26 26 24 23 22 20 21 21 19 18 18 18 17 17 15 12 12 12 13 13 13 13 13 12 11 11 10 11 13 14 15 15 15 14 14 13 14 14 13 13 12 11 10 10 9 9 9 8 7 6 5 5 5 4 3 3 3 3 3 3 3 2 4 7 9 10 10 10 11 11 11 12 13 14 14 14 14 15 14 14 14 14 16
22 21 23 25 24 24 23 22 22 21 19 18 19 19 18 17 15 13 11 11 11 12 12 13 12 11 10 10 10 11 13 15 16 16 15 14 14 14 14 14 13 12 11 10 9 9 8 7 7 7 6 6 5 5 5 4 4 3 4 4 4 3 3 3 4 6 8 9 10 10 11 11 12 12 13 14 15 15 15 16 16 16 16 18 19
21 19 19 22 23 23 24 25 25 23 20 19 20 19 18 17 16 14 12 11 11 10 10 12 12 11 11 10 10 12 14 15 16 15 13 13 13 13 12 12 10 10 10 9 9 8 6 6 6 5 6 6 5 5 4 4 3 3 3 4 4 4 4 4 5 6 7 8 9 10 11 12 13 13 13 15 16 17 17 17 17 17 18 20 21
18 17 18 21 22 23 23 24 24 22 21 21 21 19 18 18 17 15 13 13 12 11 9 10 10 11 11 11 11 12 13 13 16 15 13 12 12 10 10 10 9 8 8 8 8 8 6 6 6 6 6 6 6 5 4 4 4 4 4 3 3 4 4 5 6 7 7 8 9 10 11 12 14 14 15 17 18 18 17 18 19 18 18 20 21
16 17 20 22 23 24 23 23 23 22 22 22 21 20 20 19 18 15 13 13 13 12 10 10 9 9 10 10 11 12 14 16 19 19 16 14 12 9 10 10 8 8 7 7 8 8 8 8 7 7 7 6 6 5 5 6 6 6 6 5 5 5 5 6 6 7 8 8 9 10 11 13 14 14 16 18 18 18 18 19 20 19 18 20 22
16 17 20 20 20 23 23 23 24 24 24 24 23 22 21 20 19 16 14 12 12 11 11 11 11 11 11 11 11 13 16 19 19 19 18 16 14 12 10 9 9 9 8 7 7 8 9 9 9 9 8 7 7 7 7 7 7 8 8 8 8 8 8 8 8 8 9 9 10 11 12 13 14 14 16 17 18 18 18 21 22 22 23 25 27
15 16 17 15 15 18 19 20 22 23 23 24 24 23 23 21 18 16 14 13 12 11 10 11 12 12 12 13 13 14 16 17 17 17 17 15 14 13 11 10 10 10 9 9 8 8 9 10 11 11 10 9 9 9 9 9 9 10 10 10 10 10 11 11 11 11 12 11 12 12 12 13 13 13 15 16 16 17 19 22 25 26 29 32 30
10 12 14 13 13 15 16 18 20 21 22 22 22 21 20 16 14 15 14 13 12 12 10 10 9 10 11 13 13 13 13 14 16 16 15 15 14 13 12 12 12 11 10 10 10 9 10 10 10 12 13 13 12 11 11 12 12 12 13 13 13 13 14 14 14 15 15 15 15 14 13 13 14 14 14 15 16 17 19 22 25 26 30 33 31
8 9 10 10 11 12 14 15 17 19 19 19 17 15 16 16 16 17 16 14 13 13 12 11 10 9 10 10 9 9 11 12 13 15 15 15 14 14 14 14 13 13 13 13 12 12 13 12 12 12 13 14 15 15 14 15 16 16 16 16 17 17 17 17 18 18 18 18 18 17 16 15 15 15 15 16 17 18 20 20 21 22 25 29 30
10 11 12 11 10 11 11 12 13 14 15 14 13 12 13 14 15 16 15 14 14 14 13 13 12 11 11 10 10 10 10 11 12 14 14 14 14 14 14 14 14 14 15 15 16 16 17 17 17 16 16 17 19 18 17 18 19 19 20 20 20 20 20 20 21 20 20 20 19 19 18 17 18 17 17 17 18 20 22 21 19 20 23 27 30
14 15 14 12 10 9 9 9 9 10 10 10 10 10 10 12 13 13 13 12 13 13 13 14 15 13 13 14 15 15 15 14 13 13 14 14 14 14 14 14 14 15 16 16 17 18 19 19 20 21 21 20 21 21 20 21 21 22 22 22 21 22 23 24 24 23 23 23 22 22 21 21 21 21 19 19 20 22 25 25 22 23 24 25 26
18 17 16 14 12 11 10 11 11 11 10 9 8 8 10 11 12 12 12 12 13 13 13 14 15 15 14 14 15 15 15 14 14 13 14 14 14 14 14 15 15 16 17 18 19 20 21 22 22 22 22 21 21 22 22 22 23 24 24 23 21 22 23 24 25 24 24 25 25 25 25 24 24 23 23 22 22 23 25 24 23 23 22 20 22
19 19 18 16 14 13 12 12 12 11 11 9 8 8 9 10 10 10 11 12 13 13 12 11 12 13 13 12 13 13 13 13 13 13 13 13 14 15 15 16 17 18 19 19 20 19 20 22 21 21 22 22 21 21 22 23 24 24 24 23 22 23 22 22 23 23 23 25 26 25 25 25 24 24 23 23 22 23 23 21 21 23 23 23 26
20 19 18 16 15 14 13 12 11 10 10 9 8 8 9 9 9 9 10 10 10 10 11 10 10 10 10 11 11 12 12 11 11 12 13 13 14 15 16 16 17 18 18 18 18 16 16 17 17 17 18 19 19 19 20 21 21 22 22 22 22 22 20 21 22 22 20 21 23 25 25 24 24 23 23 22 22 23 23 22 22 24 26 27 29
20 19 18 16 15 14 13 12 12 11 10 9 8 8 7 7 6 7 7 6 6 7 8 9 9 9 9 10 12 12 12 12 13 14 16 16 16 17 17 16 16 16 16 16 16 15 15 15 17 17 17 17 18 19 20 21 21 22 22 22 23 23 22 22 22 22 20 19 19 22 24 23 23 23 22 22 22 21 21 22 23 24 26 27 27
18 17 16 14 13 13 12 11 11 11 11 10 9 7 6 6 4 4 4 3 4 4 5 6 6 6 7 8 9 9 9 10 11 12 14 15 16 17 17 16 15 16 17 16 16 17 17 17 20 22 20 20 22 23 23 24 24 25 25 25 25 26 25 24 23 24 25 20 15 18 23 24 23 23 23 23 22 20 19 20 22 23 24 24 23
15 14 13 12 11 11 10 10 9 9 9 8 7 6 5 5 4 3 3 3 4 4 5 5 6 7 8 9 10 10 10 11 12 13 14 15 16 18 20 20 19 19 21 21 21 22 23 22 25 28 27 26 27 27 27 28 28 29 29 29 28 29 28 27 26 25 24 19 14 15 20 23 24 24 24 23 21 19 19 20 21 22 22 21 20
13 11 10 9 9 8 8 7 7 6 6 6 5 5 5 5 5 5 5 6 6 7 8 9 10 11 12 13 14 14 15 16 18 19 19 20 21 22 24 25 25 26 27 28 28 28 29 29 31 32 31 30 30 30 30 30 31 31 31 30 30 30 31 31 30 27 22 16 15 16 17 21 26 25 23 21 19 19 20 21 22 22 21 20 20
10 9 8 7 7 6 5 4 3 3 3 3 3 3 3 4 4 5 6 6 7 8 9 9 10 11 12 13 14 15 15 17 18 19 20 21 22 23 25 26 27 27 28 29 29 30 31 31 32 32 31 31 31 31 31 31 31 31 31 31 31 31 32 32 31 30 25 19 18 18 16 19 25 25 22 20 20 21 23 23 23 22 21 20 19
9 8 7 7 6 5 5 4 3 2 1 1 1 2 2 3 4 4 5 6 6 7 8 8 8 9 9 10 11 12 13 14 16 17 18 19 20 22 23 24 25 26 26 27 28 29 29 30 30 29 29 29 29 29 29 29 29 28 28 28 28 29 30 29 29 29 26 22 22 20 16 18 24 25 22 22 24 25 27 26 24 22 21 19 17
10 9 8 7 6 6 5 4 3 3 2 1 1 0 1 1 2 2 3 4 4 5 6 6 6 7 7 7 8 9 10 11 13 14 16 17 18 20 21 22 22 23 23 24 25 26 26 27 27 27 27 26 26 26 25 25 25 24 23 24 25 25 25 26 27 28 25 22 22 19 16 20 24 24 22 24 26 28 27 24 21 20 18 16 14
9 9 8 7 6 6 5 4 4 4 3 2 2 2 1 1 1 1 2 2 2 3 4 4 4 5 5 6 6 7 8 8 10 12 14 15 16 17 18 19 20 20 21 22 25 26 25 25 25 25 25 25 24 23 22 22 21 21 21 21 22 23 24 24 24 24 22 21 20 17 18 22 24 23 24 25 26 27 24 21 20 19 17 14 13
10 9 8 8 7 7 6 5 6 6 5 4 4 4 3 3 2 2 2 1 1 1 2 2 3 4 4 5 6 5 5 6 9 11 12 12 13 13 14 15 16 17 18 21 23 24 24 24 23 22 22 20 18 17 16 16 16 16 16 16 17 20 23 24 24 23 20 18 17 18 22 24 22 21 24 27 27 27 24 22 21 19 16 13 11
10 10 9 8 8 7 6 6 7 7 7 6 6 6 6 6 5 5 5 4 3 2 2 1 1 2 2 3 4 3 3 5 8 8 9 10 11 11 12 14 15 15 17 18 19 20 20 20 19 17 16 15 14 13 12 12 13 14 14 14 13 14 15 18 20 20 18 17 19 23 26 26 23 23 28 31 30 28 24 22 20 17 14 13 11
9 9 9 8 8 8 7 6 6 7 7 7 7 7 9 10 9 8 8 7 7 6 5 4 4 3 2 1 2 3 4 5 6 7 8 10 11 12 13 13 14 15 15 16 17 17 17 15 14 12 12 12 11 11 11 11 12 14 14 14 12 12 14 15 16 16 16 18 22 25 27 27 26 28 32 33 29 26 23 20 17 14 13 11 10
7 7 6 5 6 7 6 6 6 7 7 7 6 6 7 9 10 10 10 9 8 8 7 7 6 5 4 3 2 3 5 6 7 8 8 9 10 11 11 11 12 13 13 14 14 14 13 11 10 10 9 10 10 11 11 12 13 13 14 13 12 13 16 17 17 17 18 18 20 22 25 26 28 29 30 28 25 22 19 16 13 11 9 7 5
7 7 6 5 6 6 5 5 5 5 5 5 5 4 4 4 6 9 11 10 9 8 8 8 8 7 7 6 5 4 4 5 6 7 8 8 9 10 11 11 12 12 12 12 12 11 9 9 9 10 10 10 11 12 12 12 12 13 12 12 12 12 14 16 18 18 17 16 16 19 21 24 26 27 26 22 20 17 14 11 10 8 6 5 5
7 6 5 5 5 5 5 4 4 4 4 4 4 5 4 3 3 5 7 9 9 8 8 9 10 10 10 9 9 8 7 7 6 6 6 7 9 10 11 12 13 13 12 12 11 9 9 9 9 10 10 11 11 12 12 11 12 11 11 11 12 10 10 13 17 17 14 13 13 14 17 21 24 24 20 16 14 12 10 9 8 7 6 6 6
7 6 6 5 5 4 4 4 4 4 5 4 5 6 5 6 6 4 4 6 7 8 8 9 11 11 11 11 11 10 10 9 8 8 8 9 9 10 11 12 12 12 11 9 8 8 8 9 9 10 10 10 9 10 10 11 11 11 11 11 10 10 10 13 16 16 12 9 9 12 18 20 20 17 14 11 10 9 8 8 8 8 7 6 5
7 7 6 6 5 4 4 4 5 5 5 5 5 6 6 7 7 6 5 5 5 6 6 7 8 10 10 10 10 11 10 10 11 11 11 11 11 11 12 12 12 11 9 8 8 8 8 8 9 9 9 9 9 9 9 9 10 10 10 9 10 13 16 15 15 13 10 11 13 16 18 17 15 12 10 9 9 8 8 8 8 7 5 4 3
5 5 5 5 4 3 3 5 5 2 3 4 5 6 6 7 7 6 6 5 5 5 4 4 5 8 10 10 10 11 11 11 12 11 11 11 11 11 12 12 12 11 10 8 8 8 8 7 8 8 8 8 9 8 8 8 8 9 9 9 11 15 18 15 12 9 12 15 15 16 16 14 12 10 10 11 11 11 9 8 6 5 4 3 2
4 4 4 3 2 2 2 3 4 3 4 5 5 5 5 6 6 5 4 4 4 4 4 4 4 7 9 10 10 10 9 9 9 8 8 9 10 10 11 11 12 12 11 10 9 8 7 7 8 9 9 8 8 7 7 7 8 10 11 12 12 14 16 14 11 13 17 16 15 15 14 12 12 12 11 11 10 8 7 5 3 3 4 3 2
3 4 3 1 0 1 1 2 4 5 6 4 3 3 3 3 4 4 3 3 4 4 4 4 5 7 8 7 7 7 8 7 7 7 8 9 10 10 10 11 12 12 12 12 11 11 9 9 9 10 9 8 8 8 6 7 8 11 11 10 8 7 7 5 7 14 16 13 12 12 11 11 11 10 9 8 6 4 3 1 1 1 2 1 1
5 7 7 3 1 1 1 1 2 4 3 1 1 2 2 3 3 4 3 4 4 4 5 5 6 7 9 8 7 8 10 9 9 9 9 10 11 12 12 12 12 12 12 11 11 11 10 10 10 9 8 9 10 9 7 7 8 7 5 2 3 7 10 12 14 15 13 12 11 10 8 7 6 4 3 4 3 3 3 4 4 2 1 0 1
4 7 7 4 1 1 1 1 1 2 1 1 1 1 2 3 4 4 4 4 4 5 6 6 5 7 9 8 7 10 11 10 10 12 12 12 13 13 13 13 12 12 11 11 10 10 10 9 8 8 8 9 9 7 6 5 3 3 4 7 12 16 18 18 17 15 13 12 11 9 7 5 4 3 3 4 4 4 5 5 3 2 2 1 1
3 5 6 3 1 0 1 1 1 0 1 1 2 2 2 3 4 4 4 4 4 5 6 5 5 8 9 7 8 10 10 9 10 12 13 14 14 15 15 15 14 13 11 10 10 9 8 8 7 7 7 6 4 3 1 4 8 10 11 14 17 18 18 16 15 14 12 11 10 8 7 6 5 5 4 4 4 5 5 4 2 1 1 1 0
2 3 3 2 1 1 1 2 2 1 2 2 2 3 3 3 3 4 4 4 4 5 5 4 5 7 8 8 9 11 10 8 10 12 12 13 15 16 17 17 17 15 14 12 10 9 8 8 8 9 10 8 5 4 7 10 12 13 15 16 16 15 15 15 15 13 12 10 8 7 6 6 5 4 3 4 5 4 3 2 2 1 1 1 1
2 2 1 0 0 1 1 2 2 2 3 3 3 4 4 4 3 3 4 4 4 4 5 4 4 5 7 9 10 10 9 8 10 12 11 12 14 17 18 19 18 17 16 15 13 12 11 10 12 14 15 14 13 13 13 13 12 13 15 15 13 13 14 15 14 12 10 8 7 7 6 5 4 4 5 6 4 2 1 2 2 1 1 1 1
2 2 1 1 1 0 1 1 2 3 5 6 5 4 4 4 4 3 4 4 4 4 4 4 3 4 5 7 8 8 8 9 11 12 12 13 15 16 18 19 18 18 17 16 16 15 14 14 14 15 16 16 16 15 13 12 12 14 15 14 13 13 14 13 12 9 7 6 6 7 7 6 4 5 5 5 3 2 2 2 2 2 1 1 1
2 2 2 1 1 1 0 0 2 4 6 5 4 4 4 4 4 4 4 4 4 4 4 4 4 4 5 5 6 7 8 9 10 12 13 14 15 16 17 17 17 17 16 16 16 16 16 16 17 17 17 17 17 16 14 14 14 15 14 13 12 11 10 9 8 6 4 5 6 6 6 5 4 3 4 4 3 2 2 2 2 2 2 2 2
4 3 3 2 2 2 2 1 2 4 5 5 4 5 5 4 4 4 4 4 4 5 4 4 4 5 5 5 6 7 7 8 9 11 12 14 14 14 14 14 14 14 14 14 14 14 15 16 16 16 16 17 17 16 16 15 14 13 13 11 10 9 8 7 5 4 4 4 5 5 5 3 2 3 5 5 3 2 3 2 2 2 2 2 2
5 4 4 3 3 3 2 2 3 5 5 5 5 5 5 5 4 4 4 4 5 5 5 5 5 5 5 5 6 7 7 7 8 8 9 10 11 11 11 11 11 11 11 11 10 11 12 13 13 14 14 15 15 14 14 13 12 11 11 9 8 7 6 6 5 5 4 4 4 4 3 3 2 2 3 3 2 2 2 2 3 3 3 3 3
6 5 4 4 3 3 3 2 3 4 5 5 5 6 5 5 5 4 4 4 5 5 4 5 5 5 5 5 6 6 6 7 7 7 7 8 10 10 10 9 9 9 9 8 8 8 8 9 10 10 11 11 11 11 11 10 10 9 8 7 6 5 5 6 6 6 5 5 5 5 4 3 3 2 2 1 1 1 2 3 3 3 3 3 3
7 6 6 5 4 4 4 4 3 4 5 5 5 6 6 6 5 5 5 5 4 4 4 4 4 4 4 5 5 5 5 6 6 6 6 7 9 10 10 9 9 9 9 9 9 9 9 9 10 10 10 10 10 10 9 9 8 7 6 6 6 6 7 7 8 8 8 7 7 6 5 4 5 4 3 3 2 1 1 2 3 3 3 4 3
8 8 7 6 5 5 5 5 5 5 5 5 5 5 6 6 5 5 5 4 4 3 4 4 4 4 4 4 4 5 5 5 5 5 5 6 7 8 8 9 9 8 8 8 9 9 10 11 11 12 12 11 11 11 10 10 9 9 8 8 8 9 9 9 9 9 8 7 6 6 5 5 5 5 4 4 3 3 2 3 3 3 4 4 4
9 9 8 7 7 6 5 5 5 6 6 6 6 6 6 6 5 5 5 4 4 3 3 2 2 3 3 3 3 4 4 4 4 4 5 5 5 5 6 7 7 7 7 7 8 8 9 10 10 11 11 11 11 11 10 10 10 9 9 9 9 8 8 8 7 7 6 6 5 5 4 3 3 3 2 2 3 3 4 5 5 4 4 5 5
Wind_Direction
175 178 179 175 175 179 177 177 185 187 181 178 173 173 179 177 174 174 174 175 172 168 168 169 169 169 168 161 155 160 161 157 154 152 148 144 141 138 132 127 126 122 120 126 128 125 125 129 134 138 137 137 142 144 143 140 135 132 131 125 127 133 134 141 143 148 163 176 174 180 193 193 190 193 197 212 224 211 212 229 234 231 236 250 263
175 179 180 179 179 180 179 182 186 184 180 179 176 178 181 177 175 174 175 176 171 167 170 170 170 171 167 161 156 157 160 158 154 151 150 151 148 142 136 135 135 129 121 123 129 127 125 125 129 135 138 138 139 140 141 143 142 146 150 147 152 156 154 156 158 162 172 179 176 185 203 199 189 195 201 216 233 220 214 233 241 234 233 245 262
177 181 182 183 182 180 182 184 185 183 181 180 180 181 180 175 171 169 171 172 168 167 172 171 169 170 167 164 159 156 160 162 157 154 154 153 151 150 147 144 142 136 128 125 129 131 129 127 128 132 135 133 135 140 143 149 157 166 176 189 198 201 196 189 186 181 182 185 182 189 206 205 193 198 205 216 231 219 208 225 235 231 234 235 242
178 182 184 186 183 181 185 186 183 181 179 180 182 181 179 174 166 161 164 167 168 170 172 169 170 170 167 167 164 159 164 166 160 156 157 154 150 149 147 145 143 140 137 135 134 135 133 131 132 135 135 132 135 141 145 150 161 173 190 210 218 228 225 214 212 208 197 194 192 192 204 210 199 199 204 210 221 217 207 218 222 223 235 232 233
180 183 183 184 183 183 188 186 180 178 177 180 182 179 178 173 164 160 159 163 169 171 168 168 171 171 168 169 170 164 164 166 163 162 161 154 147 143 143 146 147 147 149 144 140 140 141 142 145 145 144 143 143 148 155 160 164 176 204 218 219 233 246 229 217 219 213 205 201 196 201 208 204 204 208 208 215 217 213 218 221 223 231 228 235
182 184 185 185 182 183 184 180 179 180 179 179 178 177 177 173 165 160 156 159 166 168 168 170 171 170 168 169 173 170 165 163 163 163 160 153 148 146 145 147 151 152 153 151 150 151 150 153 157 156 155 159 166 171 176 181 180 186 202 208 211 229 251 245 217 218 219 215 209 202 202 208 208 210 212 211 214 218 217 221 224 225 227 227 239
179 183 190 188 183 184 182 176 178 183 183 181 178 176 175 172 168 163 157 156 158 162 169 171 167 167 170 169 172 173 168 165 163 162 159 155 152 151 150 150 151 153 153 153 156 156 155 164 168 166 167 171 180 190 197 203 199 191 200 203 209 229 238 232 223 217 218 219 216 212 214 215 214 215 220 219 219 222 222 223 226 225 227 232 242
177 178 186 185 183 185 183 179 180 181 182 182 180 176 174 173 172 167 160 155 154 158 168 171 167 167 168 167 171 175 170 166 164 160 159 162 161 159 158 155 157 160 159 160 163 157 156 167 167 166 175 180 186 193 196 197 188 184 202 207 211 227 229 225 227 221 220 224 223 222 225 223 220 220 221 219 221 226 225 225 228 225 228 238 246
171 171 178 179 179 182 185 187 184 178 178 183 183 180 179 178 176 172 166 161 156 155 162 169 170 169 167 166 170 171 165 167 169 164 162 167 166 165 167 165 166 169 170 174 178 173 169 175 179 183 193 200 205 208 204 198 189 193 214 223 221 231 236 237 240 236 235 235 231 230 231 229 228 226 223 222 228 234 229 226 231 229 228 236 244
166 169 174 175 177 179 183 188 185 179 180 184 183 183 184 182 179 175 172 167 161 158 159 162 165 168 166 164 167 169 171 177 178 174 172 173 170 174 179 178 177 177 181 188 193 195 195 195 198 200 204 207 208 210 214 215 213 217 228 235 233 235 238 240 244 245 244 245 243 242 240 239 240 238 234 234 241 245 236 229 233 231 226 230 238
157 163 168 171 176 181 184 187 187 184 185 187 187 186 185 182 179 177 174 170 164 161 161 161 163 166 164 162 169 179 183 184 181 181 184 183 181 184 186 189 193 192 193 196 201 207 207 206 208 209 209 210 212 216 221 226 229 231 235 238 237 238 240 242 246 247 248 250 249 248 246 248 250 249 247 246 247 246 238 235 238 234 233 238 242
140 145 148 151 163 175 182 185 185 184 186 189 190 186 181 177 175 177 175 169 165 161 162 162 163 169 173 174 180 185 187 187 187 188 191 192 193 195 196 203 207 206 206 205 207 211 210 210 213 215 216 220 225 232 234 235 238 239 241 243 243 245 247 249 250 247 249 253 254 253 253 255 257 256 256 254 249 248 245 247 251 248 249 255 252
142 141 139 143 153 165 174 178 180 182 185 188 187 182 182 184 186 187 181 174 171 169 168 167 166 173 179 179 182 186 189 195 199 200 201 203 204 203 205 209 211 213 216 216 216 218 216 218 223 228 231 232 234 240 244 247 249 249 251 252 252 253 254 255 255 250 250 253 255 256 255 257 260 259 259 257 252 253 255 256 259 260 260 261 255
138 136 143 157 163 167 173 175 181 187 191 195 195 193 202 216 222 217 209 202 194 185 180 182 187 195 192 184 183 189 197 205 208 209 210 210 210 209 212 215 217 222 226 226 228 230 228 229 231 235 241 242 242 245 249 254 257 258 258 258 259 260 259 259 259 256 254 255 258 260 260 260 263 262 262 263 256 256 261 260 259 260 258 256 254
113 120 134 152 160 162 169 179 188 193 198 205 207 201 201 209 214 213 210 208 204 201 199 199 205 214 212 211 218 223 228 232 227 221 218 217 218 221 225 229 232 236 239 239 240 242 242 243 243 244 248 251 253 253 253 257 260 263 264 265 266 266 264 263 263 261 259 259 260 264 265 264 263 261 261 263 261 262 266 264 258 257 256 258 258
110 115 120 128 136 142 151 163 175 181 186 192 191 180 175 181 189 194 200 203 204 209 211 209 213 220 217 217 225 233 240 244 239 233 231 230 232 235 239 243 244 246 249 250 251 251 251 250 250 249 251 253 254 254 254 256 259 262 265 267 266 267 267 269 270 266 263 263 263 264 266 265 264 263 260 258 261 266 270 271 270 266 261 258 255
112 116 119 124 131 137 143 145 146 150 155 159 162 163 168 178 184 190 200 204 198 198 204 207 213 221 222 220 226 233 239 242 242 241 239 239 241 244 246 248 250 252 254 256 257 257 255 253 253 254 256 257 257 258 258 259 261 263 265 265 264 265 268 271 272 268 263 264 265 265 265 265 265 264 262 258 257 260 266 271 272 267 258 244 237
105 107 111 116 122 127 133 136 135 137 143 145 148 158 168 177 182 186 193 196 192 192 199 204 208 215 218 219 224 230 235 240 243 244 244 243 244 246 249 251 252 254 257 258 258 259 260 260 260 261 262 264 266 267 267 266 266 267 267 265 265 266 267 269 272 272 268 266 265 265 265 265 265 265 264 261 256 254 257 261 262 263 261 250 241
100 100 101 103 106 111 117 121 125 130 135 137 141 151 158 166 176 181 183 188 191 192 199 206 209 213 216 221 229 235 238 242 245 247 251 253 254 255 256 255 254 255 256 259 261 263 266 268 268 265 265 270 273 273 273 272 271 270 270 269 269 270 269 269 271 274 275 271 267 265 265 266 266 265 264 263 259 255 254 255 257 264 267 261 252
100 101 103 104 106 110 115 118 121 124 127 129 134 144 150 155 170 180 180 184 191 193 199 211 219 223 228 237 244 246 248 251 254 255 258 258 256 257 257 256 256 257 259 261 263 264 266 270 271 268 266 271 276 276 276 275 272 270 268 267 268 268 268 268 268 269 272 272 268 267 268 267 266 267 269 267 263 260 256 254 255 258 257 252 246
101 103 105 107 109 113 116 118 120 121 121 123 127 131 132 134 146 161 166 179 197 197 197 209 224 234 242 250 257 258 257 260 263 263 263 261 259 261 263 262 262 263 264 266 265 262 260 261 266 268 268 269 271 272 272 271 269 268 266 265 265 265 265 266 265 264 267 267 262 266 271 272 271 272 274 272 268 264 260 256 253 248 242 237 235
96 100 105 109 113 117 120 122 127 130 131 135 140 141 144 149 159 170 182 204 226 232 231 238 247 255 257 258 262 264 264 265 268 268 267 268 267 268 269 269 268 267 268 269 268 267 266 263 264 268 270 268 266 265 264 264 263 263 264 265 266 265 265 264 261 261 264 263 255 257 267 274 275 274 274 275 272 265 258 251 243 236 230 227 227
90 93 99 105 108 112 117 122 130 136 141 151 159 166 175 183 192 208 220 229 238 244 247 252 256 260 263 263 263 264 263 262 263 263 264 265 264 265 267 269 269 269 269 269 269 268 269 268 268 270 270 268 266 264 263 262 262 262 264 265 266 266 265 264 261 261 261 257 251 250 258 269 273 272 271 271 266 256 246 237 229 224 222 223 222
80 81 85 91 94 97 101 105 117 131 143 161 177 188 201 210 218 227 233 239 246 252 255 258 262 265 269 270 270 270 269 267 266 266 266 267 266 267 268 270 271 271 271 272 272 272 272 272 273 274 274 273 272 271 270 268 268 268 268 268 268 267 266 266 265 263 260 255 253 251 250 259 268 269 265 260 253 243 233 224 220 222 222 221 222
66 66 66 67 67 70 72 72 78 86 108 158 191 214 226 239 245 249 253 254 256 263 267 270 273 276 279 283 285 284 283 282 281 279 277 276 276 276 277 277 278 278 278 279 278 279 279 280 280 280 280 279 278 276 275 274 273 272 271 270 270 269 268 268 267 264 260 256 258 257 248 249 260 262 255 249 243 232 223 219 221 223 222 218 219
63 61 59 56 53 54 52 50 52 47 41 48 33 312 234 243 251 252 262 263 263 267 272 274 279 283 285 290 292 292 293 293 292 290 287 286 286 286 286 287 286 286 285 284 282 282 282 283 283 282 281 280 279 278 278 278 277 277 275 273 271 271 271 269 266 263 260 256 259 259 244 242 252 254 247 243 237 227 222 223 225 222 216 213 216
68 65 64 61 57 56 52 53 62 60 55 62 57 40 35 24 356 334 308 289 283 282 283 284 284 281 281 284 285 288 295 296 288 285 284 284 284 284 285 286 286 287 287 285 284 284 284 284 283 283 282 281 279 279 279 280 281 281 279 275 271 268 267 267 264 261 257 256 258 251 236 239 250 250 241 235 228 222 223 225 221 214 212 214 222
69 65 62 59 58 62 65 72 81 84 81 83 86 80 76 77 68 48 12 323 300 285 280 282 280 275 275 276 272 273 284 286 280 279 281 283 282 282 283 283 283 283 282 282 283 285 286 287 287 287 287 286 283 280 279 279 280 279 278 277 274 269 266 264 261 256 251 251 251 238 231 240 251 246 233 223 218 219 220 215 209 209 212 217 226
59 56 53 50 50 55 59 68 80 85 77 70 72 74 71 68 65 59 50 43 38 27 31 40 335 292 277 267 263 258 260 277 287 295 302 303 301 301 299 296 294 292 290 290 291 291 292 294 295 292 288 285 282 279 277 275 274 273 272 272 273 271 266 265 264 258 247 241 240 235 235 244 248 237 224 216 212 214 212 205 201 204 210 217 228
54 52 50 49 51 51 50 53 58 61 57 52 52 60 65 63 57 51 46 46 50 51 48 49 42 23 15 359 312 295 288 293 302 310 314 315 316 316 312 308 305 303 301 301 301 302 305 307 307 301 293 287 283 281 279 277 276 275 275 275 273 269 266 266 269 264 250 243 243 242 242 246 243 231 219 212 207 203 198 195 198 206 217 229 239
62 56 49 52 64 60 51 50 51 48 46 46 40 37 46 54 58 59 56 51 52 57 58 58 56 44 31 21 352 316 303 301 304 306 311 317 322 323 322 322 319 315 313 312 314 319 323 319 312 308 301 294 290 287 285 283 281 279 280 280 275 271 271 272 272 270 262 256 253 247 245 244 236 222 210 201 195 191 189 195 206 217 227 232 221
66 63 50 46 60 65 55 49 52 52 49 52 57 54 43 36 41 54 61 62 60 60 59 59 56 49 38 31 20 357 334 322 317 318 322 325 327 328 328 325 321 318 318 320 324 331 330 317 310 311 307 301 298 294 290 290 288 285 284 280 273 274 277 277 277 277 272 266 258 250 242 234 220 205 195 189 189 190 196 209 218 218 213 205 203
64 68 62 49 50 60 60 47 45 60 65 65 74 82 87 88 63 37 38 45 51 53 52 51 48 43 39 36 32 28 25 19 10 2 354 346 341 338 333 327 319 312 307 311 322 331 327 316 315 314 308 304 300 294 291 292 289 285 284 280 276 274 272 274 280 280 272 264 260 245 226 210 198 190 186 187 191 198 208 215 212 204 201 208 226
42 45 64 76 63 50 51 40 32 49 60 63 69 72 75 84 90 79 44 31 31 30 33 38 39 35 30 28 27 26 24 23 21 17 8 360 354 348 341 336 331 321 305 298 308 319 316 312 314 312 307 305 302 297 295 295 293 290 288 286 282 275 269 278 289 286 263 236 223 210 199 191 187 186 188 189 193 199 202 200 195 193 198 210 228
25 20 43 69 66 46 38 30 26 43 55 52 55 62 65 68 73 80 84 73 52 36 29 29 27 21 16 16 17 15 12 10 10 8 3 359 355 352 349 348 346 340 327 311 306 307 307 308 311 311 307 304 302 303 305 301 298 298 295 290 286 278 274 285 297 285 238 198 188 190 189 185 182 181 178 175 173 173 177 186 194 201 213 229 230
24 9 15 36 42 39 36 22 13 36 81 60 40 40 51 59 60 57 59 63 61 50 36 22 8 2 3 8 11 9 6 5 2 359 357 357 356 355 357 357 357 354 346 332 321 316 313 313 311 306 305 305 304 308 310 305 302 301 295 290 285 277 274 283 287 246 197 182 185 188 183 178 174 168 167 173 175 175 183 197 210 224 242 248 207
25 11 1 358 4 16 25 14 9 29 57 53 37 24 29 45 58 59 56 67 79 62 34 20 18 14 13 16 17 13 10 8 3 1 3 5 3 2 4 5 5 5 0 352 343 337 331 324 316 308 306 309 308 309 309 305 304 301 292 284 277 271 273 279 261 210 186 180 183 181 174 173 174 170 172 180 183 188 203 223 245 261 254 236 185
358 352 349 335 338 25 354 343 8 28 37 35 31 35 40 51 63 67 67 75 83 75 50 35 47 53 49 42 37 36 35 30 25 22 21 20 19 17 16 13 8 5 2 357 354 352 348 339 330 322 316 309 307 311 316 313 311 308 297 284 272 263 264 259 206 184 176 169 166 166 169 176 180 178 179 181 181 191 207 181 93 9 305 307 148
336 335 345 2 84 158 270 300 351 17 31 46 59 63 78 89 84 81 82 77 73 80 75 59 57 71 73 68 65 67 62 54 50 46 37 31 29 26 22 16 8 3 1 358 358 0 358 351 344 337 324 310 306 313 319 316 313 313 304 267 166 150 147 145 146 150 151 147 148 154 163 172 176 174 165 157 156 154 136 121 118 119 94 5 256
333 323 333 355 37 258 286 300 334 351 13 122 124 101 106 107 96 89 88 82 77 84 82 70 65 78 80 75 72 71 61 50 49 50 44 39 37 33 28 25 18 11 8 5 4 6 5 359 352 342 325 313 308 307 311 321 350 57 109 135 139 137 137 137 139 140 143 146 147 147 145 145 136 124 123 131 133 126 116 108 110 119 129 156 240
329 318 322 341 44 81 305 301 300 246 174 163 148 140 128 110 102 99 93 86 85 87 86 80 75 77 76 69 65 64 54 42 45 50 47 45 45 41 38 36 33 29 25 20 16 15 14 8 3 360 355 345 325 295 251 102 101 109 122 134 137 135 133 132 134 136 137 138 137 138 143 150 152 156 164 155 127 106 96 91 84 85 98 98 40
315 321 323 331 354 7 298 290 290 194 160 163 157 150 141 122 111 108 101 100 100 96 94 92 81 70 65 60 60 60 53 42 44 48 48 50 51 49 47 45 42 39 36 30 25 28 32 36 44 50 50 49 54 86 105 107 113 125 133 135 134 133 132 131 129 126 122 120 124 134 143 148 149 151 140 108 91 83 84 96 99 82 68 60 11
286 290 270 210 307 304 267 261 261 219 190 181 174 160 146 132 125 115 105 103 104 100 96 96 86 66 54 50 53 56 52 45 46 47 47 50 53 52 50 48 46 46 43 39 38 45 53 62 70 74 75 74 75 83 92 100 114 130 138 138 136 135 133 129 124 121 120 122 127 130 130 129 130 122 102 87 79 69 79 97 95 79 54 27 337
257 274 267 137 119 192 279 267 226 198 181 168 160 153 146 138 133 126 116 108 105 102 98 93 85 69 50 44 46 50 51 50 50 50 49 50 50 50 48 46 46 47 47 44 45 53 63 72 77 81 83 83 81 84 92 104 120 133 137 136 134 132 130 128 129 130 133 136 134 128 121 115 109 102 93 86 82 75 70 74 81 81 50 12 348
233 235 234 222 181 178 186 83 173 170 163 156 150 150 150 146 137 128 123 116 106 103 102 93 81 72 63 56 54 54 53 52 52 52 53 53 51 49 48 47 47 50 51 49 48 54 64 74 79 82 86 89 90 93 100 110 120 125 126 124 123 122 123 128 133 134 133 134 132 127 120 110 98 94 96 89 73 71 82 72 57 51 19 353 356
228 225 219 217 200 171 131 110 154 165 163 163 164 158 152 147 138 131 130 129 121 111 104 95 85 78 72 66 61 58 56 55 53 53 56 58 56 54 52 50 48 49 52 54 56 60 67 75 80 84 87 91 95 100 104 109 113 115 114 114 114 115 115 119 120 116 115 123 125 122 115 100 88 118 126 117 85 71 93 84 30 9 348 336 352
220 218 212 211 202 176 148 141 156 164 165 165 164 161 157 152 143 131 123 121 119 114 106 99 92 83 77 71 66 61 59 57 55 53 54 57 58 57 55 52 49 48 48 51 57 65 71 76 81 85 89 93 98 101 103 106 109 111 113 115 117 117 118 118 114 112 119 124 115 104 93 68 49 90 122 114 75 53 61 35 354 353 348 332 326
215 214 215 212 200 188 183 168 148 147 156 163 161 159 159 154 145 134 119 111 112 114 109 104 98 88 79 72 68 64 62 60 57 54 52 53 54 55 54 52 50 51 53 54 58 66 72 78 82 86 90 95 101 106 109 111 113 115 117 121 124 123 122 120 115 114 116 111 102 101 108 107 99 99 109 108 90 23 353 338 331 339 341 327 314
214 213 217 216 204 195 195 188 163 149 160 170 167 160 158 156 152 145 136 127 124 122 117 111 104 94 83 76 70 65 62 59 57 56 54 54 54 55 56 55 52 53 60 65 69 73 78 82 86 90 93 96 102 107 110 111 112 113 113 114 114 113 113 113 115 116 114 105 94 94 102 103 93 82 67 59 72 72 353 336 328 324 326 327 322
216 214 217 218 215 208 198 190 182 175 171 171 170 169 168 166 162 157 150 143 140 136 128 121 113 99 88 81 74 67 62 58 58 57 53 52 54 56 59 61 60 61 65 71 76 79 80 82 84 88 90 92 94 97 99 100 102 103 103 104 106 108 111 113 115 116 115 107 96 94 93 88 81 75 56 32 24 19 346 317 311 306 308 313 312
219 217 216 214 217 219 212 199 194 191 183 176 177 180 180 176 173 174 172 165 162 163 155 137 122 113 104 91 79 75 73 70 67 58 46 43 50 59 63 66 70 72 76 80 84 86 84 81 81 84 87 89 91 92 93 95 95 96 97 99 101 104 107 110 111 111 107 99 92 86 78 64 55 51 36 6 349 332 314 308 309 307 302 302 302
Height
1512 1515 1517 1520 1523 1527 1529 1531 1534 1536 1538 1539 1540 1541 1543 1544 1545 1545 1546 1547 1548 1549 1551 1551 1552 1553 1553 1553 1554 1554 1555 1557 1558 1559 1561 1562 1563 1564 1565 1566 1567 1567 1567 1567 1567 1568 1569 1570 1571 1572 1574 1575 1576 1577 1578 1578 1579 1581 1582 1582 1583 1584 1584 1584 1585 1587 1588 1588 1589 1590 1589 1590 1590 1591 1591 1591 1591 1592 1593 1593 1594 1594 1594 1594 1593
1511 1514 1516 1519 1522 1526 1528 1531 1533 1535 1537 1538 1539 1541 1542 1543 1544 1545 1546 1547 1548 1549 1550 1551 1552 1552 1553 1554 1554 1555 1555 1557 1558 1560 1561 1562 1563 1564 1565 1566 1567 1567 1568 1568 1568 1569 1570 1571 1572 1573 1574 1575 1577 1578 1578 1579 1580 1581 1582 1582 1583 1583 1584 1584 1585 1586 1587 1587 1588 1589 1588 1589 1590 1590 1590 1590 1590 1591 1592 1592 1593 1594 1594 1594 1593
1509 1512 1515 1518 1521 1524 1527 1530 1532 1534 1536 1538 1539 1540 1542 1543 1544 1544 1545 1546 1547 1549 1550 1550 1551 1552 1553 1554 1554 1555 1555 1557 1558 1560 1561 1562 1563 1564 1565 1566 1567 1568 1569 1570 1570 1570 1570 1572 1573 1573 1574 1575 1577 1578 1579 1579 1581 1581 1582 1582 1583 1583 1583 1584 1584 1585 1586 1586 1587 1587 1587 1587 1589 1589 1589 1589 1589 1590 1592 1592 1592 1593 1593 1593 1593
1508 1511 1514 1518 1521 1524 1527 1529 1532 1534 1535 1537 1539 1540 1542 1543 1544 1544 1545 1545 1547 1548 1549 1550 1551 1552 1552 1553 1554 1554 1555 1556 1558 1559 1561 1562 1563 1564 1564 1565 1567 1568 1570 1570 1571 1571 1571 1572 1573 1574 1574 1575 1576 1578 1579 1579 1580 1581 1582 1582 1582 1582 1582 1583 1584 1584 1585 1585 1586 1587 1587 1586 1588 1589 1589 1589 1588 1589 1591 1591 1592 1592 1592 1592 1592
1509 1512 1515 1518 1520 1524 1527 1530 1532 1534 1535 1537 1538 1540 1541 1542 1543 1544 1545 1545 1546 1547 1548 1550 1551 1552 1552 1553 1554 1555 1555 1556 1558 1559 1560 1561 1562 1563 1564 1565 1567 1568 1569 1570 1571 1572 1572 1573 1573 1574 1575 1575 1577 1578 1579 1579 1580 1581 1581 1581 1582 1582 1581 1582 1582 1583 1584 1584 1585 1586 1586 1586 1587 1588 1588 1588 1588 1588 1589 1590 1590 1591 1590 1591 1590
1509 1512 1513 1515 1519 1522 1526 1530 1533 1534 1535 1536 1538 1539 1541 1542 1543 1544 1544 1545 1546 1547 1548 1550 1551 1552 1553 1554 1555 1555 1556 1556 1558 1559 1560 1561 1562 1563 1564 1565 1566 1567 1569 1570 1570 1571 1572 1573 1573 1574 1575 1575 1576 1577 1578 1578 1579 1580 1580 1580 1581 1581 1581 1581 1582 1582 1583 1583 1584 1585 1585 1585 1586 1587 1587 1587 1588 1588 1588 1589 1589 1589 1589 1588 1587
1508 1510 1512 1515 1520 1523 1526 1528 1531 1534 1535 1536 1537 1539 1540 1541 1542 1543 1544 1544 1545 1547 1548 1549 1551 1552 1553 1554 1555 1555 1556 1556 1557 1559 1560 1561 1562 1563 1564 1565 1566 1567 1568 1569 1570 1571 1572 1572 1573 1574 1575 1575 1576 1576 1577 1577 1578 1578 1579 1579 1580 1580 1580 1581 1581 1581 1581 1582 1583 1583 1584 1584 1584 1585 1585 1586 1586 1586 1587 1587 1587 1587 1586 1585 1585
1507 1509 1511 1516 1520 1522 1525 1527 1528 1532 1535 1536 1537 1538 1539 1540 1541 1542 1543 1544 1546 1547 1549 1549 1550 1552 1553 1553 1554 1555 1556 1557 1557 1559 1560 1561 1562 1563 1564 1565 1566 1567 1568 1569 1570 1570 1572 1572 1573 1574 1574 1575 1575 1576 1576 1576 1577 1577 1578 1578 1579 1579 1580 1580 1580 1580 1580 1580 1581 1581 1582 1582 1582 1582 1583 1583 1583 1584 1584 1584 1584 1584 1584 1583 1582
1508 1509 1511 1514 1518 1520 1524 1526 1527 1530 1533 1536 1537 1538 1539 1540 1541 1542 1543 1544 1545 1547 1548 1549 1550 1551 1552 1553 1554 1555 1556 1557 1557 1558 1560 1561 1562 1563 1564 1565 1566 1567 1568 1568 1569 1570 1571 1572 1572 1573 1573 1574 1574 1575 1575 1575 1576 1577 1577 1577 1578 1578 1579 1579 1579 1579 1579 1579 1579 1579 1580 1580 1580 1580 1580 1580 1580 1581 1582 1582 1582 1582 1582 1581 1580
1509 1510 1510 1513 1516 1518 1521 1524 1526 1529 1532 1535 1537 1537 1539 1540 1541 1542 1543 1544 1545 1546 1547 1549 1550 1551 1552 1552 1553 1554 1555 1555 1556 1557 1559 1560 1562 1563 1564 1565 1566 1567 1567 1568 1568 1569 1570 1571 1571 1572 1572 1573 1573 1574 1574 1574 1575 1575 1576 1576 1576 1577 1577 1578 1578 1578 1578 1578 1578 1577 1577 1577 1578 1578 1578 1578 1578 1578 1579 1579 1579 1580 1579 1578 1578
1508 1509 1510 1512 1515 1517 1519 1522 1524 1526 1529 1533 1535 1536 1537 1539 1540 1542 1543 1543 1544 1545 1546 1547 1549 1551 1551 1552 1552 1553 1553 1554 1555 1557 1558 1559 1561 1562 1563 1564 1565 1566 1567 1567 1568 1568 1569 1570 1571 1571 1571 1572 1572 1573 1573 1573 1574 1574 1574 1574 1575 1575 1575 1576 1576 1576 1576 1576 1576 1575 1575 1575 1575 1576 1576 1576 1576 1576 1576 1576 1576 1577 1576 1575 1574
1508 1508 1509 1512 1515 1517 1519 1521 1523 1525 1528 1531 1533 1534 1536 1538 1540 1541 1542 1543 1544 1545 1546 1547 1548 1549 1550 1550 1550 1551 1553 1554 1555 1556 1557 1559 1560 1561 1562 1564 1564 1565 1566 1567 1567 1568 1568 1569 1569 1570 1570 1570 1571 1571 1572 1572 1572 1572 1573 1573 1573 1573 1573 1574 1574 1574 1574 1574 1574 1573 1573 1573 1573 1573 1573 1574 1574 1574 1574 1573 1573 1573 1572 1571 1571
1507 1508 1509 1512 1514 1516 1518 1520 1523 1526 1528 1530 1532 1534 1536 1538 1540 1541 1542 1543 1544 1545 1546 1547 1548 1549 1548 1549 1549 1551 1553 1554 1555 1556 1557 1558 1559 1561 1562 1563 1564 1565 1565 1566 1566 1567 1567 1568 1568 1568 1569 1569 1569 1570 1570 1570 1571 1571 1571 1571 1571 1571 1571 1571 1571 1571 1571 1571 1571 1571 1571 1571 1571 1571 1571 1571 1571 1571 1571 1570 1570 1570 1569 1569 1569
1507 1509 1511 1512 1514 1516 1518 1521 1524 1526 1528 1530 1532 1534 1536 1537 1539 1540 1541 1542 1543 1544 1545 1547 1548 1549 1548 1548 1549 1550 1552 1554 1555 1556 1557 1558 1559 1560 1561 1562 1563 1564 1564 1565 1565 1565 1566 1566 1567 1567 1567 1567 1568 1568 1569 1569 1569 1569 1569 1569 1569 1568 1568 1568 1568 1568 1568 1567 1567 1567 1567 1567 1567 1567 1568 1567 1568 1568 1568 1568 1567 1567 1566 1565 1565
1508 1511 1513 1514 1515 1517 1519 1521 1524 1526 1527 1529 1531 1533 1535 1535 1537 1538 1539 1541 1542 1543 1544 1546 1547 1548 1548 1548 1549 1551 1552 1554 1555 1555 1556 1557 1558 1559 1560 1561 1562 1562 1563 1563 1564 1564 1564 1564 1565 1565 1565 1565 1565 1566 1566 1567 1566 1566 1566 1566 1566 1566 1565 1565 1565 1565 1565 1564 1564 1564 1564 1564 1563 1564 1564 1564 1564 1564 1564 1564 1564 1564 1563 1561 1561
1511 1513 1514 1515 1516 1518 1520 1522 1524 1526 1527 1529 1530 1532 1533 1535 1536 1538 1539 1540 1541 1542 1543 1545 1546 1547 1547 1548 1551 1552 1553 1554 1554 1555 1555 1556 1557 1558 1559 1559 1560 1561 1561 1562 1562 1562 1562 1562 1562 1563 1563 1562 1562 1563 1564 1564 1564 1564 1564 1564 1564 1563 1562 1561 1561 1561 1561 1561 1561 1560 1560 1560 1559 1560 1560 1560 1560 1560 1560 1560 1560 1560 1559 1559 1558
1513 1515 1516 1518 1519 1520 1522 1523 1525 1527 1528 1530 1531 1532 1533 1535 1536 1537 1538 1539 1540 1541 1542 1544 1544 1545 1546 1548 1550 1551 1552 1553 1553 1553 1554 1555 1556 1556 1557 1558 1558 1559 1559 1559 1560 1560 1560 1560 1560 1560 1559 1559 1559 1560 1561 1561 1561 1561 1561 1561 1561 1560 1559 1558 1557 1558 1558 1557 1557 1557 1556 1556 1556 1556 1556 1556 1556 1557 1556 1556 1556 1555 1556 1557 1556
1516 1517 1518 1520 1521 1522 1523 1525 1526 1528 1529 1530 1532 1533 1534 1535 1536 1537 1538 1539 1539 1540 1542 1542 1543 1544 1545 1547 1548 1549 1550 1551 1551 1552 1552 1553 1554 1554 1555 1555 1556 1556 1556 1557 1557 1557 1557 1557 1557 1557 1557 1556 1557 1558 1558 1558 1558 1558 1558 1558 1557 1557 1557 1556 1554 1554 1554 1553 1553 1553 1552 1552 1552 1552 1552 1552 1552 1553 1553 1553 1552 1551 1552 1553 1552
1518 1520 1521 1522 1524 1525 1526 1527 1528 1529 1530 1531 1532 1534 1535 1536 1536 1537 1537 1538 1539 1540 1541 1541 1542 1543 1545 1546 1547 1547 1548 1549 1550 1550 1551 1551 1552 1552 1552 1553 1553 1553 1554 1554 1554 1555 1555 1554 1554 1555 1554 1554 1554 1555 1555 1555 1555 1555 1555 1555 1554 1554 1554 1554 1552 1550 1550 1550 1549 1549 1548 1548 1548 1547 1547 1547 1548 1548 1548 1548 1548 1548 1548 1548 1547
1521 1522 1524 1525 1526 1527 1528 1529 1530 1531 1532 1532 1533 1534 1535 1536 1536 1536 1537 1538 1539 1539 1540 1541 1542 1543 1544 1544 1545 1545 1547 1548 1548 1548 1548 1549 1549 1549 1549 1550 1551 1551 1551 1551 1551 1552 1553 1552 1551 1552 1552 1552 1551 1552 1552 1552 1552 1552 1552 1552 1551 1551 1551 1550 1549 1548 1547 1546 1545 1545 1544 1544 1544 1543 1543 1543 1543 1544 1544 1544 1544 1544 1544 1544 1543
1524 1525 1526 1527 1528 1529 1530 1530 1531 1532 1532 1533 1534 1535 1535 1536 1536 1536 1537 1538 1538 1539 1540 1540 1541 1542 1543 1543 1543 1544 1545 1546 1546 1546 1546 1547 1547 1547 1547 1548 1549 1549 1548 1548 1549 1549 1550 1550 1549 1548 1549 1549 1548 1548 1548 1548 1547 1547 1547 1548 1547 1547 1546 1546 1545 1544 1543 1543 1542 1541 1540 1540 1539 1539 1539 1539 1539 1539 1540 1540 1540 1540 1540 1540 1541
1526 1527 1528 1529 1530 1531 1531 1532 1532 1533 1533 1534 1534 1535 1535 1536 1536 1536 1537 1538 1538 1539 1539 1540 1540 1541 1541 1542 1542 1543 1543 1544 1544 1544 1544 1545 1545 1545 1544 1545 1546 1546 1545 1545 1546 1545 1545 1545 1544 1544 1544 1545 1544 1544 1544 1543 1543 1543 1543 1543 1543 1542 1542 1542 1541 1540 1539 1539 1539 1538 1536 1535 1535 1535 1535 1535 1535 1535 1536 1536 1536 1536 1537 1538 1539
1528 1529 1530 1530 1531 1531 1532 1532 1533 1533 1533 1534 1534 1534 1535 1535 1536 1536 1536 1537 1537 1538 1538 1538 1539 1539 1539 1540 1540 1541 1541 1541 1541 1542 1542 1542 1542 1542 1541 1541 1541 1542 1542 1542 1542 1541 1540 1540 1539 1539 1539 1540 1540 1540 1540 1539 1539 1538 1538 1538 1538 1538 1537 1537 1536 1536 1535 1535 1535 1535 1533 1532 1531 1531 1531 1531 1532 1532 1532 1533 1534 1534 1535 1535 1536
1529 1530 1530 1530 1531 1531 1532 1532 1533 1533 1533 1533 1534 1534 1534 1535 1535 1535 1535 1536 1536 1536 1537 1537 1537 1537 1537 1537 1538 1538 1538 1538 1538 1539 1539 1538 1538 1538 1538 1537 1537 1537 1537 1537 1537 1536 1536 1535 1535 1535 1535 1535 1535 1535 1535 1535 1534 1534 1534 1534 1533 1533 1533 1532 1532 1532 1531 1531 1531 1531 1530 1528 1527 1527 1528 1528 1529 1529 1530 1531 1531 1531 1532 1533 1533
1529 1530 1530 1530 1530 1531 1532 1532 1533 1533 1533 1533 1533 1533 1534 1534 1534 1534 1535 1535 1535 1535 1535 1535 1535 1535 1536 1536 1535 1535 1535 1535 1535 1535 1536 1535 1535 1535 1534 1534 1534 1533 1533 1533 1533 1532 1532 1532 1532 1532 1531 1531 1531 1530 1530 1530 1530 1530 1530 1529 1529 1529 1528 1528 1528 1528 1527 1526 1526 1526 1526 1525 1523 1524 1524 1525 1526 1526 1527 1527 1528 1528 1529 1530 1531
1531 1531 1531 1531 1531 1531 1532 1532 1532 1533 1533 1533 1533 1533 1533 1533 1534 1534 1534 1534 1534 1534 1534 1534 1534 1534 1534 1534 1534 1534 1534 1534 1533 1533 1533 1533 1532 1532 1531 1531 1531 1530 1530 1529 1528 1528 1528 1528 1528 1528 1527 1527 1526 1526 1526 1525 1525 1525 1525 1525 1525 1525 1524 1524 1524 1523 1523 1522 1522 1522 1523 1521 1520 1520 1521 1522 1522 1523 1523 1524 1526 1527 1527 1528 1529
1532 1532 1532 1532 1532 1532 1532 1532 1533 1533 1533 1533 1533 1533 1533 1533 1533 1533 1533 1533 1533 1533 1533 1533 1533 1533 1534 1534 1534 1533 1533 1533 1532 1532 1531 1531 1531 1531 1530 1529 1528 1528 1527 1526 1525 1525 1525 1524 1524 1524 1523 1523 1523 1523 1523 1522 1522 1522 1521 1521 1521 1521 1520 1520 1520 1519 1519 1519 1519 1520 1519 1518 1516 1517 1517 1518 1520 1521 1522 1522 1523 1525 1526 1527 1527
1533 1533 1533 1533 1533 1533 1533 1533 1533 1533 1533 1533 1533 1533 1533 1533 1533 1533 1533 1533 1533 1533 1533 1533 1532 1532 1532 1532 1532 1532 1532 1532 1531 1531 1530 1530 1530 1529 1528 1528 1527 1526 1525 1524 1523 1522 1522 1521 1521 1521 1520 1520 1520 1520 1521 1521 1520 1520 1519 1518 1518 1517 1516 1516 1516 1515 1516 1516 1517 1517 1515 1514 1514 1515 1515 1515 1517 1518 1519 1520 1520 1522 1524 1525 1526
1534 1534 1534 1534 1534 1534 1534 1534 1534 1534 1534 1534 1534 1534 1534 1534 1533 1533 1533 1533 1532 1532 1532 1532 1532 1531 1531 1531 1531 1531 1531 1531 1530 1529 1529 1528 1527 1527 1526 1525 1524 1524 1523 1522 1521 1520 1520 1519 1519 1519 1519 1519 1519 1519 1519 1519 1518 1518 1517 1516 1516 1514 1513 1512 1512 1512 1513 1513 1513 1513 1512 1511 1512 1512 1512 1512 1513 1514 1516 1518 1519 1521 1522 1523 1524
1536 1535 1535 1535 1535 1535 1535 1535 1535 1535 1535 1535 1535 1534 1534 1534 1533 1533 1533 1532 1532 1532 1531 1531 1531 1530 1530 1530 1530 1530 1530 1529 1529 1528 1527 1527 1526 1525 1524 1523 1522 1521 1521 1520 1519 1518 1518 1517 1517 1517 1517 1517 1517 1517 1517 1516 1516 1515 1514 1514 1513 1512 1510 1510 1509 1509 1509 1510 1509 1509 1509 1510 1510 1510 1509 1510 1511 1513 1514 1516 1518 1519 1520 1521 1522
1537 1537 1537 1536 1536 1537 1537 1537 1537 1537 1537 1537 1536 1536 1535 1535 1534 1534 1533 1533 1532 1532 1531 1531 1531 1531 1530 1530 1530 1530 1529 1528 1528 1527 1526 1526 1525 1524 1523 1522 1521 1520 1519 1519 1518 1517 1516 1516 1517 1516 1516 1516 1515 1515 1515 1514 1514 1513 1512 1512 1512 1510 1507 1507 1507 1506 1506 1506 1506 1506 1507 1507 1507 1507 1508 1509 1510 1512 1514 1516 1517 1518 1519 1520 1521
1539 1539 1538 1537 1537 1538 1539 1539 1538 1539 1539 1538 1538 1538 1538 1537 1536 1535 1534 1533 1533 1532 1532 1531 1531 1531 1530 1530 1529 1529 1528 1527 1527 1526 1526 1525 1524 1523 1523 1522 1521 1519 1518 1517 1517 1516 1516 1516 1516 1515 1515 1515 1514 1514 1513 1512 1512 1511 1510 1510 1510 1508 1506 1504 1504 1503 1503 1503 1503 1504 1504 1504 1505 1506 1508 1510 1511 1512 1514 1516 1517 1518 1519 1519 1520
1539 1539 1539 1539 1539 1539 1540 1540 1540 1540 1540 1539 1539 1539 1538 1538 1537 1536 1535 1533 1533 1532 1532 1531 1531 1530 1530 1529 1528 1528 1527 1527 1526 1526 1525 1524 1524 1523 1521 1520 1519 1518 1517 1516 1516 1515 1516 1516 1515 1515 1514 1514 1513 1512 1511 1510 1510 1509 1509 1508 1508 1507 1505 1503 1502 1502 1501 1501 1502 1502 1502 1503 1505 1507 1508 1510 1511 1512 1514 1515 1516 1517 1518 1518 1518
1539 1538 1538 1539 1540 1540 1540 1540 1540 1539 1539 1539 1538 1538 1537 1537 1536 1536 1536 1535 1534 1533 1532 1531 1531 1530 1530 1529 1529 1528 1528 1527 1526 1526 1525 1524 1523 1522 1521 1519 1517 1516 1516 1515 1515 1515 1515 1515 1514 1514 1513 1512 1511 1510 1509 1508 1508 1507 1506 1506 1506 1505 1503 1501 1501 1501 1500 1500 1501 1502 1503 1504 1506 1507 1508 1509 1510 1512 1514 1515 1517 1517 1517 1517 1517
1540 1539 1538 1538 1539 1540 1540 1540 1539 1538 1538 1538 1538 1537 1537 1536 1536 1536 1536 1536 1536 1535 1535 1534 1532 1531 1531 1530 1529 1529 1528 1527 1526 1525 1524 1523 1522 1521 1520 1518 1517 1515 1514 1514 1514 1513 1513 1513 1512 1512 1511 1510 1508 1507 1506 1506 1506 1505 1504 1504 1503 1502 1500 1500 1500 1500 1500 1501 1501 1503 1504 1505 1506 1507 1508 1509 1511 1513 1515 1516 1516 1516 1516 1516 1516
1542 1541 1540 1540 1540 1540 1540 1540 1538 1537 1537 1537 1537 1537 1536 1536 1536 1536 1536 1536 1537 1537 1536 1535 1534 1533 1531 1530 1529 1528 1527 1527 1526 1525 1524 1522 1521 1520 1519 1517 1516 1515 1514 1513 1512 1511 1511 1510 1510 1509 1508 1508 1507 1506 1505 1504 1504 1503 1502 1501 1500 1499 1499 1498 1499 1500 1502 1503 1504 1505 1506 1506 1507 1508 1510 1510 1512 1513 1515 1515 1515 1515 1515 1515 1515
1543 1542 1542 1541 1540 1540 1539 1539 1538 1536 1536 1537 1538 1538 1537 1536 1537 1537 1538 1537 1537 1537 1537 1536 1535 1534 1532 1531 1530 1529 1528 1527 1525 1524 1523 1522 1521 1520 1519 1517 1516 1515 1514 1512 1511 1510 1510 1509 1508 1507 1506 1506 1505 1504 1503 1502 1501 1500 1499 1498 1497 1497 1497 1497 1498 1500 1502 1504 1505 1506 1508 1508 1509 1510 1510 1510 1511 1513 1513 1514 1514 1514 1513 1513 1515
1542 1542 1541 1540 1540 1540 1540 1540 1538 1537 1538 1538 1539 1538 1538 1538 1538 1538 1538 1537 1537 1537 1537 1536 1535 1534 1533 1532 1530 1529 1528 1527 1526 1524 1523 1522 1521 1520 1519 1517 1516 1515 1513 1512 1511 1509 1508 1507 1506 1505 1505 1504 1503 1503 1502 1501 1499 1498 1497 1496 1496 1496 1495 1496 1498 1500 1503 1505 1506 1508 1509 1510 1511 1511 1510 1510 1511 1512 1513 1513 1514 1513 1513 1514 1516
1542 1541 1540 1539 1539 1540 1540 1540 1539 1539 1539 1540 1539 1539 1538 1539 1539 1539 1539 1538 1537 1538 1537 1537 1536 1534 1533 1532 1531 1530 1529 1528 1526 1525 1524 1523 1521 1520 1518 1517 1516 1514 1513 1511 1510 1509 1508 1506 1505 1504 1504 1503 1502 1501 1501 1500 1498 1497 1496 1496 1496 1496 1495 1496 1499 1502 1505 1507 1508 1509 1510 1511 1512 1512 1512 1511 1511 1512 1512 1514 1514 1515 1516 1517 1517
1543 1541 1540 1539 1539 1540 1540 1539 1539 1540 1540 1540 1540 1539 1539 1539 1539 1539 1539 1538 1538 1537 1537 1537 1536 1534 1533 1533 1531 1530 1530 1529 1527 1526 1524 1523 1521 1520 1519 1517 1515 1514 1512 1511 1510 1508 1507 1506 1505 1504 1503 1502 1501 1500 1500 1499 1498 1497 1497 1497 1498 1498 1498 1498 1500 1503 1507 1508 1509 1510 1511 1512 1513 1514 1514 1514 1513 1513 1513 1514 1515 1515 1516 1517 1517
1543 1542 1540 1539 1539 1540 1540 1539 1539 1539 1539 1539 1539 1539 1539 1539 1539 1539 1539 1538 1538 1537 1537 1537 1536 1534 1534 1533 1532 1530 1530 1530 1528 1526 1525 1524 1522 1521 1519 1517 1516 1514 1513 1511 1510 1508 1507 1506 1505 1503 1502 1501 1500 1499 1499 1499 1499 1499 1499 1500 1501 1501 1501 1501 1503 1505 1508 1509 1510 1511 1512 1513 1514 1514 1514 1514 1514 1514 1515 1516 1516 1516 1516 1516 1516
1543 1542 1541 1540 1540 1540 1540 1540 1539 1538 1538 1538 1539 1539 1539 1539 1539 1539 1539 1538 1538 1538 1538 1538 1537 1535 1534 1533 1532 1531 1531 1531 1528 1527 1526 1524 1523 1522 1520 1518 1517 1515 1514 1512 1510 1508 1507 1506 1505 1503 1502 1501 1500 1499 1500 1500 1501 1501 1502 1503 1504 1504 1504 1504 1506 1507 1509 1510 1511 1512 1513 1513 1514 1514 1514 1514 1515 1516 1516 1516 1517 1517 1516 1516 1517
1542 1542 1541 1541 1541 1540 1540 1540 1539 1539 1539 1538 1538 1538 1539 1539 1539 1539 1539 1538 1538 1538 1538 1538 1537 1536 1535 1533 1532 1532 1532 1531 1529 1527 1526 1525 1523 1522 1521 1519 1518 1517 1515 1513 1511 1509 1508 1507 1506 1505 1504 1502 1502 1501 1502 1503 1504 1505 1505 1506 1507 1507 1506 1507 1508 1510 1511 1512 1512 1513 1513 1514 1513 1514 1515 1516 1517 1517 1517 1517 1517 1517 1517 1517 1517
1542 1541 1541 1540 1541 1541 1540 1539 1539 1538 1538 1537 1538 1538 1539 1539 1539 1539 1539 1539 1538 1538 1538 1538 1537 1537 1536 1534 1533 1533 1532 1531 1529 1528 1527 1525 1524 1523 1522 1521 1519 1518 1517 1515 1513 1511 1510 1509 1508 1507 1506 1505 1504 1504 1505 1506 1506 1507 1508 1508 1509 1509 1509 1510 1511 1511 1512 1513 1513 1513 1513 1514 1514 1515 1516 1517 1518 1518 1517 1517 1517 1518 1518 1518 1518
1541 1541 1541 1541 1541 1541 1540 1539 1538 1538 1538 1538 1538 1539 1539 1539 1539 1539 1539 1539 1539 1539 1538 1538 1537 1537 1537 1536 1535 1534 1533 1531 1529 1528 1527 1526 1525 1524 1523 1522 1521 1520 1518 1517 1516 1514 1513 1511 1510 1510 1509 1508 1507 1508 1508 1509 1509 1509 1510 1510 1511 1511 1511 1512 1513 1513 1514 1514 1514 1514 1514 1514 1516 1516 1517 1517 1518 1518 1518 1518 1518 1518 1518 1518 1518
1541 1541 1541 1541 1540 1540 1540 1539 1538 1538 1538 1538 1539 1539 1539 1539 1539 1539 1539 1539 1539 1538 1538 1538 1537 1537 1537 1536 1535 1534 1533 1532 1531 1529 1528 1527 1526 1525 1525 1524 1523 1522 1521 1520 1518 1517 1516 1515 1514 1513 1512 1511 1511 1511 1511 1512 1512 1512 1512 1513 1513 1513 1514 1514 1514 1514 1514 1514 1514 1515 1515 1515 1516 1517 1517 1518 1518 1518 1518 1518 1518 1518 1518 1518 1518
1540 1540 1540 1540 1540 1539 1539 1539 1538 1538 1538 1538 1538 1539 1539 1539 1539 1539 1539 1538 1538 1538 1538 1538 1538 1538 1537 1536 1536 1535 1534 1533 1532 1531 1530 1528 1527 1526 1526 1525 1524 1523 1522 1521 1521 1520 1519 1518 1517 1516 1515 1515 1514 1514 1514 1514 1514 1514 1514 1515 1515 1515 1515 1515 1515 1515 1515 1515 1516 1516 1517 1518 1518 1518 1518 1518 1518 1518 1518 1518 1519 1518 1518 1518 1518
1539 1539 1539 1540 1539 1539 1539 1539 1538 1538 1538 1538 1538 1539 1539 1539 1539 1539 1539 1538 1538 1538 1538 1538 1538 1538 1537 1536 1536 1535 1534 1534 1533 1532 1531 1530 1528 1527 1527 1526 1525 1524 1524 1523 1522 1521 1520 1520 1519 1519 1518 1517 1517 1517 1516 1517 1517 1516 1516 1516 1516 1516 1516 1516 1516 1516 1516 1516 1517 1518 1518 1519 1519 1519 1518 1518 1518 1519 1519 1519 1519 1519 1519 1518 1518
1538 1538 1539 1539 1539 1539 1539 1539 1538 1538 1538 1538 1538 1538 1539 1539 1539 1539 1539 1539 1539 1538 1538 1538 1538 1538 1537 1537 1536 1536 1535 1534 1534 1533 1532 1531 1529 1529 1528 1527 1526 1526 1525 1524 1524 1523 1522 1521 1521 1520 1520 1519 1519 1518 1518 1518 1518 1518 1518 1518 1517 1517 1517 1517 1517 1517 1517 1517 1518 1518 1519 1519 1519 1519 1519 1518 1518 1519 1519 1520 1520 1519 1519 1519 1518
1537 1537 1538 1538 1538 1538 1538 1538 1538 1538 1538 1538 1538 1538 1538 1539 1539 1538 1538 1538 1538 1538 1538 1538 1538 1538 1537 1537 1537 1536 1536 1535 1535 1534 1533 1531 1530 1530 1529 1528 1527 1527 1526 1526 1525 1525 1524 1523 1522 1522 1521 1521 1521 1520 1520 1520 1520 1519 1519 1519 1519 1519 1519 1519 1519 1519 1519 1519 1519 1519 1520 1520 1519 1519 1519 1519 1519 1519 1519 1519 1519 1519 1519 1519 1518
1536 1536 1536 1537 1537 1537 1537 1537 1537 1537 1537 1537 1538 1538 1538 1538 1538 1538 1538 1538 1538 1538 1537 1537 1537 1537 1537 1537 1537 1536 1536 1535 1535 1534 1532 1531 1531 1530 1530 1529 1528 1528 1527 1527 1526 1526 1526 1525 1525 1524 1524 1523 1523 1522 1522 1522 1521 1521 1521 1521 1521 1520 1520 1520 1520 1520 1520 1520 1520 1520 1520 1520 1520 1520 1520 1520 1520 1520 1519 1519 1518 1518 1518 1519 1519